Regional Weather Roundup
Issued by NWS

Home | Current Version | Previous Version | Graphics & Text | Print | Product List | Glossary On
Versions: 1 2 3 4 5 6 7 8 9 10 11 12 13 14 15 16 17 18 19 20 21 22 23 24 25 26 27 28 29 30 31 32 33 34 35 36 37 38 39 40 41 42 43 44 45 46 47 48 49 50
000
ASUS43 KIND 181009
RWRIN

WEATHER ROUNDUP FOR INDIANA
NATIONAL WEATHER SERVICE INDIANAPOLIS IN
600 AM EDT THU SEP 18 2014

NOTE: "FAIR" INDICATES FEW OR NO CLOUDS BELOW 12,000 FEET WITH NO
SIGNIFICANT WEATHER AND/OR OBSTRUCTIONS TO VISIBILITY.

* - STATION DOES NOT REPORT WEATHER SUCH AS PRECIPITATION OR FOG.

+ - STATION NOT QUALITY CONTROLLED BY THE NATIONAL WEATHER SERVICE.
    USE DATA WITH CAUTION...ESPECIALLY DEWPOINT AND RELATIVE
    HUMIDITY OBSERVATIONS.

INZ001>003-010>013-019-020-181100-
NORTHWEST INDIANA

CITY           SKY/WX    TMP DP  RH WIND       PRES   REMARKS
GARY /AIRPORT/ CLEAR     46  45  93 CALM      30.07R FOG
KNOX *+        CLEAR     42  41  94 CALM      30.07R
LA PORTE +     CLEAR     44  44 100 CALM      30.08R
MICHIGAN CITY+ CLEAR     43  43 100 CALM      30.07S
MONTICELLO +   CLEAR     46  46 100 CALM      30.05R
RENSSELAER +   CLEAR     43  43 100 CALM      30.06S FOG
VALPARAISO     CLEAR     46  43  89 CALM      30.07R

$$

LMZ046-743>745-181100-
SOUTHERN LAKE MICHIGAN

STATION/POSITION TIME  TEMP WIND        PRES
                       AIR  DIR/SP/G
                 (UTC) (F)  (DEG/KT/KT) (MB)
MICHIGAN CITY    1000   54   90/  7/  8   N/A

$$

INZ004-005-014>016-021>024-181100-
NORTH CENTRAL INDIANA

CITY           SKY/WX    TMP DP  RH WIND       PRES   REMARKS
GOSHEN         CLEAR     42  40  92 CALM      30.07R
LOGANSPORT +   CLEAR     45  43  93 CALM      30.06S
PERU/GRISSOM   CLEAR     46  46 100 CALM      30.05R
ROCHESTER +    CLEAR     45  45 100 CALM      30.07R FOG
SOUTH BEND     CLEAR     44  41  89 CALM      30.08R
WARSAW +       CLEAR     41  41 100 CALM      30.07R FOG

$$

INZ006>009-017-018-025>027-181100-
NORTHEAST INDIANA

CITY           SKY/WX    TMP DP  RH WIND       PRES   REMARKS
ANGOLA *+      CLEAR     45  43  93 N3        30.07R
AUBURN +       CLEAR     45  43  93 CALM      30.07R
FORT WAYNE     CLEAR     44  43  96 N3        30.06S FOG
HUNTINGTON +   CLEAR     42  42  99 N3        30.05S FOG

$$

INZ028-029-035-036-043>045-051>053-181100-
WEST CENTRAL INDIANA

CITY           SKY/WX    TMP DP  RH WIND       PRES   REMARKS
GREENCASTLE +  CLEAR     50  48  93 CALM      30.04S
LAFAYETTE      CLEAR     46  46 100 CALM      30.04S
TERRE HAUTE    CLEAR     49  48  97 CALM      30.03S

$$

INZ030>032-037>040-046>048-054>057-064-065-181100-
CENTRAL INDIANA

CITY           SKY/WX    TMP DP  RH WIND       PRES   REMARKS
CP ATTERBURY + CLEAR     45  45 100 CALM      30.05R FOG
FRANKFORT +    CLEAR    N/A N/A N/A CALM      30.05S HAZE
GREENWOOD *+   CLEAR     48  48 100 CALM      30.04S
INDIANAPOLIS   CLEAR     51  48  89 N3        30.03R
-EAGLE CREEK   CLEAR     53  48  83 N5        30.04R
KOKOMO *+      CLEAR     45  41  87 CALM      30.06R
MARION +       CLEAR     43  42  98 CALM      30.06R FOG
MT COMFORT *+    N/A     45 N/A N/A CALM      30.04S VSB 1/2
SHELBYVILLE    CLEAR     49  45  86 NE5       30.04R FOG
ZIONSVILLE +   CLEAR     47  44  91 CALM      30.05S

$$

INZ033-034-041-042-049-050-058-059-181100-
EAST CENTRAL INDIANA

CITY           SKY/WX    TMP DP  RH WIND       PRES   REMARKS
MUNCIE         FOG       44  43  96 CALM      30.04S VSB 1

$$

INZ060-061-067>069-081>083-085>088-181100-
SOUTHWEST INDIANA

CITY           SKY/WX    TMP DP  RH WIND       PRES   REMARKS
EVANSVILLE     CLOUDY    61  54  77 NE6       30.00S
WASHINGTON +   CLOUDY    52  52 100 CALM      30.01S FOG

$$

INZ062-063-066-070>080-084-089>092-181100-
SOUTH CENTRAL AND SOUTHEAST INDIANA

CITY           SKY/WX    TMP DP  RH WIND       PRES   REMARKS
BEDFORD +      CLEAR     52  48  87 CALM      30.03  FOG
BLOOMINGTON    PTCLDY    50  48  93 CALM      30.03S

$$



USA.gov is the U.S. government's official web portal to all federal, state and local government web resources and services.